Cloud_Cover
5 2 0 0 5 4 5 42 85 8 6 23 5 81 27 3 9 100 94 6 0 0 31 40 71 97 63 17 6 8 0 0 0 0 0 0 0 0 0 0 0 1 0
8 14 15 1 2 1 5 5 82 5 69 41 10 100 90 3 0 0 13 33 0 1 0 0 0 63 4 3 0 0 0 0 0 0 0 0 0 0 0 0 0 0 0
67 60 10 0 0 0 0 4 50 93 100 29 6 5 94 100 80 100 84 37 0 16 0 5 63 100 26 1 0 0 0 0 0 0 0 39 73 0 0 0 0 0 0
100 99 46 3 39 19 5 30 62 57 100 13 5 44 20 99 100 72 37 69 50 47 100 100 100 100 29 0 0 0 0 0 0 0 30 39 48 0 0 0 0 0 0
100 100 51 4 11 4 5 5 94 100 28 42 8 100 99 58 47 100 99 100 100 100 100 100 100 33 0 0 0 1 0 0 0 41 100 54 15 38 0 0 2 0 1
58 61 40 22 5 74 83 100 100 86 9 5 49 84 100 100 100 100 100 100 100 84 28 0 0 0 0 0 0 0 0 0 8 100 39 67 91 45 52 5 0 1 5
62 41 26 13 12 84 70 70 78 90 13 96 100 100 100 100 100 100 97 16 5 5 5 0 2 5 3 5 1 2 0 1 100 83 89 96 85 52 81 73 12 15 70
55 21 5 9 41 49 5 5 5 27 98 99 100 100 100 100 100 70 3 4 5 5 5 2 5 5 5 1 23 52 100 89 100 100 100 100 86 99 99 100 97 83 99
87 91 85 96 24 26 5 5 32 36 42 100 100 100 100 100 49 5 5 4 4 5 5 3 5 5 7 12 5 5 57 100 100 100 100 100 100 100 100 100 100 100 100
54 63 82 83 53 35 36 8 0 6 56 77 45 100 99 5 5 4 5 5 5 5 5 5 5 24 25 5 5 6 40 100 100 100 100 100 100 100 100 100 100 92 100
100 81 62 82 74 71 60 96 70 72 100 100 100 100 86 1 1 5 14 10 94 11 5 88 58 15 11 5 5 80 30 23 6 82 98 100 100 100 100 100 99 100 100
100 95 73 89 98 82 89 100 100 100 100 100 100 100 96 5 5 5 96 100 100 100 99 29 38 58 98 54 5 78 92 62 43 16 68 5 92 100 100 100 100 100 73
92 100 42 80 83 93 65 98 100 100 100 100 100 100 100 58 72 76 58 100 100 100 100 96 70 44 80 70 73 68 64 81 73 96 65 81 92 80 100 79 27 11 56
100 69 100 100 84 91 100 100 100 100 100 100 100 100 95 20 13 32 43 100 100 100 100 100 100 100 100 98 98 94 95 100 98 71 100 100 100 100 40 5 5 27 6
100 98 100 94 100 99 100 100 100 100 100 100 100 100 99 62 30 99 72 74 100 100 100 90 73 100 100 100 100 100 100 100 87 60 98 100 88 57 15 17 5 40 20
33 91 100 99 66 88 75 89 100 100 100 100 100 100 100 100 100 100 94 10 28 92 96 100 100 100 100 100 100 100 100 100 100 100 100 99 70 100 100 89 42 5 50
39 47 100 91 77 72 64 68 100 100 100 100 100 100 37 24 99 100 89 25 5 29 72 82 88 52 100 100 100 100 100 100 100 100 100 100 100 100 100 100 100 100 100
30 32 68 97 77 85 91 96 99 82 52 100 100 15 7 83 100 100 29 3 5 5 5 5 94 100 100 100 100 100 100 100 100 100 100 100 99 99 100 100 100 86 99
99 100 100 100 98 99 96 70 38 17 99 81 18 8 53 100 100 42 4 5 3 5 5 69 92 78 91 91 100 100 86 89 99 100 99 100 100 99 99 91 44 8 58
100 100 100 100 100 100 64 100 90 93 100 50 33 5 36 100 96 100 70 81 30 5 5 5 87 78 100 100 100 98 55 47 100 59 98 35 49 18 12 12 11 9 20
100 100 100 100 100 100 100 100 100 100 100 47 6 7 48 96 56 57 83 98 100 100 100 62 43 59 58 71 92 97 99 90 92 100 100 25 5 5 5 5 5 5 4
96 90 94 100 100 100 100 100 100 100 100 84 48 99 100 100 100 100 98 90 99 100 100 97 100 100 77 89 71 27 66 90 100 100 100 100 100 100 28 5 3 2 4
94 100 98 100 100 100 100 100 100 100 100 100 83 100 100 100 100 100 100 100 100 99 100 98 100 100 100 100 100 74 100 94 100 100 100 100 60 38 5 5 0 0 5
98 100 100 100 100 100 100 100 100 100 100 100 100 100 100 100 100 100 100 100 100 100 100 100 100 100 100 100 100 100 100 53 99 100 100 100 94 98 66 54 5 5 5
100 100 100 100 100 100 100 100 100 100 100 100 100 100 100 100 100 100 100 100 100 100 100 100 100 100 100 100 100 100 100 97 100 46 5 5 5 5 5 5 1 5 4
100 100 100 100 100 100 100 100 100 100 100 100 100 100 100 100 100 100 100 100 100 100 100 100 100 100 100 100 100 100 100 100 91 27 14 66 15 5 5 5 5 5 4